Weather History for Cut Bank, MT

Change the Weather History Date:

Tuesday, May 8, 2012

  Actual Average Record
Temperature  
Mean Temperature 57 °F 48 °F  
Max Temperature 75 °F 60 °F 82 °F (1987)
Min Temperature 38 °F 35 °F 21 °F (1909)
Degree Days  
Heating Degree Days 8 17  
Month to date heating degree days 145 148  
Since 1 July heating degree days 7134 7968  
Cooling Degree Days 0 0  
Month to date cooling degree days 0 0  
Year to date cooling degree days 0 0  
Growing Degree Days 6 (Base 50)    
Moisture  
Dew Point 30 °F    
Average Humidity 42    
Maximum Humidity 65    
Minimum Humidity 19    
Precipitation  
Precipitation 0.00 in 0.04 in 1.34 in (1948)
Month to date precipitation 0.06 0.31  
Year to date precipitation 2.18 2.00  
Snow  
Snow 0.00 in - - ()
Snow Depth 0.00 in    
Sea Level Pressure  
Sea Level Pressure 29.98 in    
Wind  
Wind Speed 10 mph (SSW)    
Max Wind Speed 30 mph    
Max Gust Speed 36 mph    
Visibility 10 miles    
Events      
T = Trace of Precipitation, MM = Missing Value Source: NWS Daily Summary

Daily Weather History Graph

Daily Weather History Graph

Search for Another Location

Airport:

Trip Planner

Search our weather history database for the weather conditions in past years. The results will help you decide how hot, cold, wet, or windy it might be!

Date:

Astronomy

May. 08, 2012 Rise Set
Actual Time 5:57 AM MDT 8:55 PM MDT
Civil Twilight 5:21 AM MDT 9:31 PM MDT
Nautical Twilight 4:34 AM MDT 10:19 PM MDT
Astronomical Twilight 3:36 AM MDT 11:17 PM MDT
Moon No Moon Rise 8:01 AM MDT (5/8)
Length of Visible Light 16h 10m
Length of Day
14h 57m
Waning Gibbous, 90% of the Moon is Illuminated
May 8
Waning Gibbous
May 12
Last Quarter
May 20
New
May 28
First Quarter
Jun 4
Full

Hourly Weather History & Observations

Time (MDT) Temp. Windchill Dew Point Humidity Pressure Visibility Wind Dir Wind Speed Gust Speed Precip Events Conditions
12:56 AM 42.1 °F 38.4 °F 30.0 °F 62% 30.15 in 10.0 mi SE 5.8 mph - N/A   Clear
1:56 AM 42.1 °F - 28.9 °F 60% 30.14 in 10.0 mi Calm Calm - N/A   Clear
2:56 AM 42.8 °F 40.1 °F 28.4 °F 57% 30.13 in 10.0 mi SSE 4.6 mph - N/A   Clear
3:56 AM 41.0 °F 38.0 °F 28.9 °F 62% 30.11 in 10.0 mi South 4.6 mph - N/A   Clear
4:56 AM 42.1 °F - 28.9 °F 60% 30.10 in 10.0 mi Calm Calm - N/A   Clear
5:56 AM 39.2 °F 35.9 °F 28.4 °F 65% 30.10 in 10.0 mi SE 4.6 mph - N/A   Clear
6:56 AM 41.0 °F 39.0 °F 30.2 °F 65% 30.08 in 10.0 mi ESE 3.5 mph - N/A   Clear
7:56 AM 46.9 °F - 30.0 °F 52% 30.06 in 10.0 mi SE 5.8 mph - N/A   Clear
8:56 AM 52.0 °F - 32.0 °F 47% 30.05 in 10.0 mi SE 5.8 mph - N/A   Clear
9:56 AM 60.1 °F - 30.9 °F 33% 30.03 in 10.0 mi SE 10.4 mph - N/A   Clear
10:56 AM 64.0 °F - 32.0 °F 30% 30.00 in 10.0 mi SE 10.4 mph 16.1 mph N/A   Clear
11:56 AM 66.9 °F - 30.9 °F 26% 29.98 in 10.0 mi Variable 5.8 mph - N/A   Clear
12:56 PM 71.1 °F - 30.0 °F 22% 29.96 in 10.0 mi West 11.5 mph - N/A   Clear
1:56 PM 72.0 °F - 28.9 °F 20% 29.94 in 10.0 mi West 9.2 mph 20.7 mph N/A   Clear
2:56 PM 73.9 °F - 30.0 °F 20% 29.92 in 10.0 mi WSW 12.7 mph 19.6 mph N/A   Clear
3:56 PM 73.9 °F - 28.9 °F 19% 29.89 in 10.0 mi WSW 9.2 mph - N/A   Clear
4:56 PM 73.0 °F - 30.0 °F 20% 29.87 in 10.0 mi WSW 11.5 mph 21.9 mph N/A   Clear
5:56 PM 72.0 °F - 28.9 °F 20% 29.88 in 10.0 mi WSW 24.2 mph - N/A   Clear
6:56 PM 68.0 °F - 28.0 °F 22% 29.88 in 10.0 mi West 21.9 mph - N/A   Clear
7:56 PM 63.0 °F - 30.0 °F 29% 29.87 in 10.0 mi WSW 12.7 mph - N/A   Clear
8:56 PM 63.0 °F - 30.9 °F 30% 29.85 in 10.0 mi WSW 18.4 mph 23.0 mph N/A   Clear
9:56 PM 60.8 °F - 32.0 °F 34% 29.91 in 10.0 mi WSW 12.7 mph - N/A   Clear
10:56 PM 62.6 °F - 30.2 °F 30% 29.90 in 10.0 mi SW 9.2 mph - N/A   Clear
11:56 PM 62.1 °F - 30.9 °F 31% 29.81 in 10.0 mi West 16.1 mph - N/A   Clear